SL-14 DEB

基本信息
目录编号:
69734
目录名称:
SL-14 DEB
国际标识:
1986-006C
轨道中心:
EARTH
物体状态:
在轨
发射日期:
1986-01-17 UTC
轨道信息
数据来源: 国际轨道数据
星历时间: 2026-09-04T08:04:59+0800
半长轴: 7013.66km
偏心率: 0.0114576
轨道倾角: 82.547°
近地点辐角: 69.625°
升交点赤经: 99.757°
平近点角: 291.723°
近地点: 555.163km
远地点: 715.883km
周期: 97.426分钟
每日圈数: 14.780384
详细信息
发射场:
PKMTR
轨道高度:
LEO
数据来源:
AOE Integration Group
参考系:
TEME
时间系统:
UTC
历元类型:
SGP4
2D轨道图
3D轨道图
轨道高度分析图
轨道倾角分析图
轨道综合分析图
查看轨道综合分析图